Airfield :
LOGIN :

Register | Disclaimer

   EN    FR    IT 

 










Legend :    VFR   Marginal VFR   IFR   Intensive IFR   Very Intensive IFR
Visi :
Ceiling :
>= 8 km
>= 3000ft
5 to 8 km
1000 to 3000 ft
1500m to 5 km
500 to 1000 ft
800 to 1500m
200 to 500 ft
< 800m
< 200 ft
Symbols :   Thunderstorms  Fog  Heavy snow  Heavy precipitations  Wind > 20 kt
SIGMETs :     Misc.  Thunderstorms  Icing  Turbulence  Mountain Waves  Volcanic Ashes







- Airport Elevation : 126 ft
- IATA code : TIA


LATI - Rinas Mother Teresa Arpt - Tirana

CURRENT METAR :
  • 181620Z 33004KT CAVOK 11/06 Q1023 NOSIG

EXPIRED METARs :
  • 181550Z 34007KT CAVOK 13/06 Q1023 NOSIG
  • 181520Z 34008KT CAVOK 14/06 Q1023 NOSIG
  • 181450Z 35008KT CAVOK 15/06 Q1023 NOSIG
  • 181420Z 35008KT CAVOK 15/07 Q1023 NOSIG
  • 181350Z 34007KT 310V020 CAVOK 16/07 Q1023 NOSIG

TAF COR TAF LATI
Valid from the 18 at 12:00 until the 19 at 12:00 UTC


181100Z 1812/1912 34008KT CAVOK TX17/1812Z TNM00/1905Z BAECMG 1817/1820 VRB04KT
No reported NOTAMs for that airfield.



MET'MAP, your aeronautical weather chart ! - Copyright ORBIFLY December 2007 - Disclaimer

ORBIFLY MET'MAP TEAM :

Programming & Development : Alexandra Zaïnal
Concept & Development : Baudouin d'Aumeries
Co-Development & Prog : Marc-Olivier Méhu
Technical & hardware support : Manuel Goepfert

Contact : metmap@orbifly.com




SOURCES & CREDITS :

   NOAA